STARLINK-1575, 46349

Orbit data source: Space-Track

STARLINK-1575, 46349 is a payload satellite owned by SpaceX/Seattle (US) in LEO that was launched on Thu, 03 Sep 2020 UTC via an FALCON 9 launch vehicle from the Air Force Eastern Test Range (AFETR). Payload-class satellites include a variety of spacecraft equipped with specific instruments for various scientific and technological missions. These include communications satellites like Starlink; space stations such as the ISS; scientific satellites like the Hubble; Earth observation satellites from companies like Planet Labs, Umbra, and HawkEye 360; GPS; miniature CubeSats for education and research; and military/defense satellites.

Loading next visibility...
Identifier
46349, 2020-062AA
Orbit
LEO
Last TLE update
3 hours ago
Origin
Manufacturer
SpaceX/Seattle
Mission
Operational Commercial Communications
Bus & Motor
STARLINK, Unknown motor
Mass
260 kg wet, ~248 kg dry
Launch date (UTC)
2020-09-03 (5 years ago)
Launch vehicle
FALCON 9
Launch site
Air Force Eastern Test Range (AFETR)
Object type
Payload
Rocket body
Debris
Shape & HBR
Box + 1 Pan, 8.86 m
Radar Cross Section
13.562 m², Large (>1 m²)

Expand to show TLE details & history

TLE from 3 hours ago
0 STARLINK-1575
1 46349U 20062AA  25189.25001157  .00041021  00000-0  17031-2 0  9994
2 46349  53.0539 348.1908 0000873  87.8316   7.1723 15.23462717268281
Epoch: 2025-07-08T06:00Z
TLE epoch observation values (Epoch: 2025-07-08T06:00:00.999Z)
Latitude
52.91619°
Longitude
70.03835°
Altitude
501.287 km
Speed
7.62 km/s
True Right ascension
05h 45m 57s
True Declination
52° 44' 40"
Sunlit
Object was in daylight at epoch
Visualization orbit readout
Latitude
-26.46348°
Longitude
-50.61617°
Altitude
503.489 km
Speed
7.612 km/s
Apparent Right ascension
00h 32m 40s
Apparent Declination
-74° 38' 18"
Sunlit
Object is in full shadow
Visualization observer readout
Local Sidereal Time
20:40:56
Azimuth
164.863° S
Elevation
-30.721°
Doppler factor
1
Orbital elements
Apogee altitude
496.278 km
Perigee altitude
495.078 km
Semi-major axis
6,873.815 km
Eccentricity
0.00009
Inclination
53.0539°
RAAN
348.1908°
Arg. of periapsis
87.8316°
True anomaly
Unknown
Mean anomaly
7.1723°
Eccentric anomaly
Unknown
Mean motion
3.80843 °/min
Orbital period
94.53 mins
BSTAR
0.0017031
Loading maneuver chart data...
Loading SW <> Apogee altitude chart data...
Loading historical data...
Loading historical data...
Loading historical data...
Loading historical data...
Loading historical data...
Loading historical data...
Loading historical data...

STARLINK-1575 Visibility forecast

Observer location: undefined°, undefined°

Span
Click to sort rows by Start time (UTC) header in descending order
Start Az.
Max El. time (UTC)
Max El. Az.
Max El.
End time (UTC)
End Az.
6 mins2025-07-08 13:39:12.154Z234.622° WSW2025-07-08 13:41:12.154Z253.494° W42.527°2025-07-08 13:45:12.154Z48.251° ENE
4 mins2025-07-08 18:38:12.154Z351.479° N2025-07-08 18:40:12.154Z32.417° NE17.878°2025-07-08 18:42:12.154Z66.053° ENE
6 mins2025-07-08 20:16:12.154Z310.004° NW2025-07-08 20:18:12.154Z310.667° NW43.887°2025-07-08 20:22:12.154Z130.882° SE
|